Helicity
51 63 74 62 54 57 63 95 107 102 90 251 25 54 54 71 75 62 69 53 67 63 90 103 139 151 167 168 162 145 188 142 145 119 109 115 134 131 123 86 105 73 127 122 204
26 13 14 8 12 39 77 70 91 121 169 165 135 95 63 86 89 55 46 35 36 64 98 103 132 140 186 178 175 183 183 114 107 122 123 103 70 88 72 91 46 102 85 160 156
16 20 17 8 4 5 20 9 67 100 149 202 134 128 75 103 131 75 29 60 99 111 104 113 134 147 175 153 166 181 162 119 109 94 98 88 68 44 68 35 -3 26 37 88 142
24 32 36 27 5 8 -4 6 0 72 111 169 80 131 64 92 120 73 24 36 102 116 159 139 144 163 154 154 162 161 130 117 104 105 91 79 83 63 48 56 30 43 29 -2 78
30 16 53 50 18 5 6 -3 -1 35 114 150 135 71 149 116 126 54 11 60 104 104 115 124 152 138 147 137 151 123 108 104 99 87 74 86 80 79 60 72 49 60 53 -6 0
18 60 48 58 39 34 18 17 15 22 64 74 166 159 176 103 145 106 126 129 80 109 108 107 89 102 122 126 129 122 107 91 83 85 96 82 97 132 61 166 159 130 103 58 -10
32 43 47 73 61 41 36 42 36 26 36 71 69 224 168 190 220 147 130 81 75 87 101 96 67 106 97 111 109 99 114 114 104 114 88 66 83 70 71 90 86 117 151 175 85
36 38 48 33 67 103 64 45 30 16 13 36 342 278 147 188 155 73 90 104 95 98 92 75 79 89 92 88 116 130 123 166 126 98 61 60 50 84 28 80 69 53 69 94 125
1 48 -6 -1 -8 43 65 44 41 16 43 111 136 128 169 138 70 98 93 83 92 92 72 69 86 74 77 102 125 135 154 137 151 63 53 41 16 57 65 107 94 65 67 60 102
3 31 4 34 17 10 41 73 201 246 171 264 116 93 87 43 137 149 133 85 89 80 69 81 85 74 65 92 134 131 116 103 100 61 49 66 75 65 54 55 54 41 63 68 82
26 11 68 107 43 32 18 -13 252 189 163 63 90 71 62 99 60 35 92 95 96 81 90 68 86 55 41 58 100 109 81 66 83 85 74 49 59 71 121 84 110 66 45 22 35
-1 14 21 26 41 -19 29 58 129 142 156 110 74 109 89 41 87 51 47 60 67 70 67 62 87 75 56 66 68 63 77 78 58 43 19 36 42 82 35 16 70 62 59 54 44
23 14 30 30 29 29 46 25 73 160 130 148 61 78 75 13 32 12 34 59 62 64 69 77 48 55 56 56 69 49 62 42 36 86 40 -13 -47 -23 55 37 35 45 48 64 18
25 35 25 31 34 73 29 119 129 134 123 111 75 72 70 59 65 30 20 30 34 48 43 50 37 38 50 65 18 52 20 1 19 2 -7 66 -45 5 46 69 93 99 57 49 27
42 50 53 29 80 77 66 60 94 78 132 73 67 51 55 46 14 5 2 24 37 27 29 12 29 40 44 27 13 19 24 24 19 24 17 54 29 7 20 52 87 98 36 6 15
46 28 42 75 102 117 78 53 47 99 95 77 59 27 30 13 14 17 8 17 1 5 11 47 22 7 21 15 6 20 15 63 16 0 17 -30 36 1 -32 43 60 34 12 -9 -35
54 39 37 61 115 108 73 43 68 57 84 56 23 40 22 12 14 15 9 11 11 23 46 45 15 7 10 16 7 15 33 14 -2 -16 24 -13 23 38 44 140 58 72 19 -93 -94
79 87 91 77 106 67 22 45 27 53 40 24 30 34 24 19 12 3 13 32 15 26 31 57 59 13 -3 21 25 -10 -24 -3 49 71 52 -11 13 -2 130 20 -26 -47 -85 -70 -2
64 87 97 125 71 34 28 45 2 58 71 27 21 10 21 14 -16 -9 4 -3 -14 3 10 49 80 29 51 35 -5 -8 33 21 41 38 26 23 22 5 252 121 6 22 15 65 37
64 107 198 165 94 39 48 -44 12 57 33 59 70 46 -37 -3 5 7 6 25 48 44 33 63 103 51 7 -4 -4 53 24 12 11 38 76 74 75 77 160 151 93 61 114 100 74
45 66 163 123 79 55 93 58 72 71 65 66 65 46 45 45 18 6 11 29 29 53 63 61 53 42 17 23 35 43 39 15 19 34 84 76 100 74 93 118 78 114 165 130 89
62 26 109 41 24 77 74 63 72 88 78 74 69 53 77 83 74 78 94 81 64 65 61 58 44 97 73 48 93 133 116 58 51 88 68 70 82 75 133 141 99 141 168 128 67
51 72 63 11 23 73 93 88 98 56 48 48 66 51 41 69 98 126 152 127 127 91 63 47 32 89 82 86 65 61 76 99 60 44 43 33 66 97 112 96 94 44 66 74 43
18 -19 33 44 60 44 24 56 44 79 79 61 54 45 48 54 59 77 92 88 103 109 105 70 54 50 85 115 134 108 79 74 86 91 35 4 -3 -12 5 22 36 38 59 51 60
-5 11 25 -19 13 16 20 18 24 24 58 16 36 33 63 57 71 64 78 69 66 54 43 46 48 39 63 75 76 140 105 45 16 34 40 -12 -7 -37 12 39 46 45 43 43 43
12 14 -12 -7 -2 -24 -15 -14 -31 25 21 55 42 62 43 68 75 72 55 37 45 45 34 29 31 15 29 23 24 31 27 31 36 26 28 -39 -49 2 11 16 22 27 22 18 11
0 -12 -5 -8 -22 -26 -18 2 -29 -29 14 2 49 42 29 39 76 94 78 61 51 23 12 1 -6 -16 32 1 0 12 -2 2 1 -12 17 -21 -6 5 0 22 29 22 8 -8 -29
Wind_Speed
69 69 67 65 64 60 58 58 61 64 60 57 46 39 37 36 38 38 43 36 30 25 26 29 30 31 31 32 32 32 49 65 63 62 63 50 60 56 57 65 60 57 54 52 60
63 60 60 61 61 62 63 61 61 61 64 61 56 34 33 32 39 45 36 29 28 23 31 31 32 31 35 36 36 39 47 54 50 53 60 59 61 68 69 73 73 69 64 66 67
60 64 62 61 61 57 57 58 63 61 59 59 57 25 25 24 41 45 32 25 16 23 26 28 28 33 36 36 39 42 54 50 53 53 58 65 73 63 74 90 72 74 71 74 73
58 62 66 64 65 61 58 58 56 62 61 58 45 26 17 29 51 38 22 16 16 19 21 24 32 36 40 43 43 54 53 55 56 59 67 75 68 79 81 87 86 91 91 80 81
71 75 70 68 63 56 54 57 57 56 60 60 52 20 19 42 44 28 4 7 12 20 24 29 33 36 42 43 48 55 58 61 65 70 70 73 79 82 91 90 92 94 90 89 84
62 68 64 65 66 55 46 48 57 57 59 58 53 26 32 45 34 21 7 12 18 21 23 27 32 33 39 45 50 52 61 69 67 68 65 74 77 69 77 72 79 83 91 88 84
64 61 60 62 58 46 45 46 51 58 58 59 50 29 34 35 34 12 12 18 20 19 23 28 27 34 36 46 47 57 67 68 61 55 53 54 69 64 70 71 81 83 88 91 87
58 53 55 57 48 45 45 51 55 61 55 51 18 32 37 32 28 9 10 14 16 18 20 26 27 33 39 40 50 54 55 62 48 47 54 51 81 70 66 72 78 86 88 88 85
16 43 12 32 45 41 40 43 44 25 6 16 16 25 24 31 21 18 11 13 15 20 22 24 28 35 38 47 53 50 61 62 62 49 58 58 86 68 77 74 85 88 89 87 85
26 26 30 20 27 30 23 21 22 3 8 11 25 24 29 20 12 19 22 9 20 17 25 32 35 40 42 46 58 57 62 61 68 57 63 82 106 103 85 72 81 79 79 81 83
52 17 35 20 30 19 21 10 25 18 30 26 17 17 12 11 1 17 19 16 20 24 33 34 40 46 42 42 47 53 61 71 72 69 75 76 90 96 87 76 72 71 66 67 74
13 17 10 4 5 39 21 28 37 38 8 14 4 8 6 8 19 18 11 21 24 30 28 35 49 41 35 37 46 55 66 73 71 51 68 82 94 88 82 68 59 60 59 63 68
34 12 10 11 30 16 32 42 48 42 15 9 3 4 14 11 13 8 12 22 23 29 30 35 33 33 38 47 51 53 56 66 73 78 68 70 71 51 50 57 53 48 52 54 59
39 20 3 16 27 25 30 36 32 32 17 15 15 19 19 18 16 19 18 22 22 25 28 35 42 44 45 48 42 59 50 57 57 58 54 50 68 54 58 63 55 55 54 58 56
23 21 23 18 35 38 30 33 29 29 17 19 18 27 27 21 7 18 23 28 24 26 32 41 42 44 43 43 40 42 42 50 59 51 62 39 41 48 59 60 64 67 59 56 53
20 19 26 27 29 27 29 26 25 30 23 21 25 14 15 16 21 15 21 30 34 41 45 54 48 46 38 39 37 47 44 41 40 33 29 20 19 16 34 50 52 51 49 46 43
23 16 13 19 32 20 25 27 37 37 35 32 33 30 25 26 23 25 29 33 36 37 37 40 37 29 39 38 36 36 29 26 29 29 24 20 21 18 4 15 23 31 29 28 28
17 27 31 29 14 20 26 39 46 38 39 31 30 22 23 22 20 24 27 32 33 30 33 33 28 33 35 36 33 32 31 29 29 28 20 20 16 17 6 19 25 31 36 24 35
22 26 28 13 12 33 43 58 51 42 43 42 21 16 18 20 16 18 21 23 24 19 23 29 36 33 35 35 32 28 31 29 29 28 24 21 20 25 10 8 20 15 36 33 41
32 25 31 6 23 43 60 68 57 47 49 46 26 23 11 3 9 14 16 23 29 33 33 31 33 32 29 28 33 33 28 31 30 27 27 23 29 16 9 15 15 28 25 29 22
33 43 26 12 39 48 68 62 51 42 43 44 40 43 39 35 33 31 30 29 32 32 34 35 34 27 28 29 23 24 27 30 29 29 27 26 26 15 18 22 32 21 30 27 19
47 62 18 19 48 44 55 42 42 44 42 42 41 40 38 39 30 29 31 34 39 36 34 36 31 28 28 29 28 27 22 25 35 30 31 31 27 24 26 31 34 36 34 30 30
55 50 28 30 64 60 43 42 43 37 37 36 39 37 37 30 30 30 36 34 38 34 32 33 29 25 25 28 23 24 22 31 35 36 26 29 30 28 32 32 30 32 21 26 22
49 56 46 48 47 51 52 47 46 34 36 33 35 39 32 31 28 32 30 30 34 34 33 31 28 24 31 32 21 16 18 36 41 36 43 46 51 42 41 49 41 33 37 23 24
45 51 46 52 48 46 44 43 45 41 24 24 34 25 25 30 27 24 25 27 32 25 32 31 28 25 25 21 19 23 24 21 47 53 47 58 51 49 56 58 53 49 47 40 34
44 46 46 49 44 45 46 45 43 37 33 30 23 17 16 27 24 24 20 26 29 27 31 28 30 25 26 19 16 18 17 20 28 55 58 54 49 49 50 48 51 49 49 47 41
41 40 41 42 44 45 43 40 40 34 38 35 23 20 18 18 22 24 26 27 27 24 27 29 30 27 28 25 26 26 26 29 39 37 46 42 44 49 48 48 47 46 42 36 28
Wind_Direction
311 308 306 304 302 302 300 296 290 284 285 287 274 275 283 287 292 290 288 294 291 297 305 298 303 306 307 304 306 305 291 285 288 287 288 300 289 290 286 278 279 280 279 281 288
312 312 309 306 303 299 296 296 293 287 279 281 280 268 277 285 286 282 291 292 290 296 291 291 294 300 298 298 300 293 292 291 297 297 294 298 294 290 284 279 275 275 276 279 283
315 307 307 307 303 300 297 296 289 289 283 275 274 258 274 287 284 285 282 289 295 301 298 297 298 296 294 298 296 296 289 296 298 300 299 296 291 291 285 276 277 274 274 277 277
319 313 306 305 300 298 294 291 294 281 281 270 272 237 254 283 275 294 280 276 297 303 300 297 295 293 291 290 296 291 294 296 299 300 297 291 294 287 282 279 280 275 274 274 272
313 307 306 306 303 303 298 291 287 286 276 263 261 241 276 268 276 297 293 296 310 299 296 293 292 294 290 294 296 293 296 297 297 296 295 294 289 287 283 284 280 276 274 271 270
322 317 315 309 300 300 298 299 285 278 269 262 257 224 265 263 285 285 275 298 298 299 301 301 296 300 298 296 296 300 299 298 299 297 297 292 290 292 290 289 284 279 275 272 269
329 328 322 311 299 294 287 292 296 278 260 254 245 232 263 263 272 265 283 298 300 304 299 306 309 304 306 300 304 301 299 301 301 302 302 301 292 291 294 291 282 281 277 274 269
347 335 332 304 294 286 275 273 279 275 252 238 211 247 249 267 258 257 280 305 319 323 319 318 320 309 307 310 305 302 303 301 306 307 304 299 287 296 300 293 286 283 280 277 273
14 16 43 358 257 263 271 271 271 263 186 149 212 242 248 244 240 253 279 296 319 319 324 328 317 307 308 302 300 303 298 300 304 308 302 295 288 297 301 294 288 286 281 276 274
79 77 89 150 217 225 269 285 269 206 126 204 239 252 245 241 244 268 276 296 302 314 312 309 308 302 302 301 295 301 302 301 296 305 302 293 284 286 294 293 290 291 284 278 273
2 107 103 142 175 252 240 266 214 218 221 251 240 276 229 202 163 268 263 281 305 305 296 304 299 293 301 303 306 307 301 296 298 303 299 300 292 284 289 296 292 290 287 281 277
123 314 145 160 289 159 225 199 185 193 165 206 170 72 122 204 251 259 275 288 293 292 307 305 296 305 316 313 306 303 299 297 301 309 306 297 282 284 289 301 296 291 289 288 284
96 127 299 166 140 160 157 169 152 171 177 191 192 197 249 259 280 275 281 304 300 300 305 305 317 327 312 305 304 303 301 298 292 296 305 301 298 308 308 310 309 300 295 291 290
88 106 180 181 148 163 164 178 185 180 189 224 252 255 245 262 296 280 273 304 318 315 320 317 299 298 302 301 308 295 307 305 306 304 312 324 303 311 311 305 309 299 297 294 290
80 102 119 135 146 145 172 184 199 203 207 250 258 227 230 288 5 291 276 300 322 326 306 288 291 293 293 298 312 313 321 307 264 243 276 335 325 323 316 311 301 291 293 294 291
77 98 127 135 144 159 170 190 199 183 183 227 221 251 293 305 316 311 303 288 294 281 276 244 279 288 304 318 277 251 253 244 228 206 198 165 147 177 302 278 267 252 244 236 220
90 91 91 140 149 197 196 181 149 151 175 177 186 203 222 238 253 264 265 270 259 254 263 273 289 334 241 252 239 215 225 208 196 184 177 167 165 142 266 262 187 181 180 175 159
101 107 112 120 166 193 181 144 127 147 155 180 189 213 214 238 265 263 260 253 273 284 276 263 272 228 222 221 215 222 207 192 189 177 181 175 174 153 254 156 152 150 150 167 130
98 111 110 124 159 140 133 112 127 144 151 155 203 246 253 273 312 317 299 301 317 347 301 218 197 220 215 218 219 217 203 201 187 181 174 161 158 157 261 187 161 152 144 156 64
93 113 102 112 137 124 110 84 110 134 131 132 156 138 354 167 267 263 268 236 214 203 210 205 192 195 202 206 203 204 223 182 172 165 158 149 139 147 137 143 168 157 144 143 22
105 105 110 113 121 120 106 114 124 134 136 132 136 136 142 151 161 175 189 200 199 200 192 188 182 199 200 188 190 186 187 180 181 171 163 154 142 156 142 137 128 135 133 128 107
100 97 125 130 118 120 114 128 129 126 129 128 127 127 134 137 148 163 163 174 169 173 170 177 176 180 185 172 169 179 193 185 169 167 155 151 145 153 138 135 127 127 135 126 120
95 103 125 128 103 105 125 129 126 129 125 126 124 130 137 154 148 154 152 161 161 170 168 173 172 185 178 162 166 176 205 182 171 158 171 164 162 171 155 150 148 140 139 135 128
97 93 105 110 117 110 108 116 123 130 127 126 126 129 145 146 155 150 155 160 161 163 169 169 163 171 154 146 164 169 222 182 161 162 143 145 141 153 150 140 146 150 144 144 141
100 95 104 101 106 106 114 116 115 120 140 137 132 141 156 151 153 160 163 165 159 173 162 168 165 171 171 169 164 143 150 169 111 104 132 128 144 151 124 129 139 144 143 145 146
99 104 108 104 108 107 109 111 111 120 128 139 158 170 171 160 167 166 181 168 167 175 169 177 174 186 181 205 203 185 188 179 173 100 102 133 146 153 146 156 142 147 138 136 144
114 121 114 107 105 107 110 114 116 121 130 132 170 198 197 203 204 209 194 205 187 190 179 175 176 195 201 227 227 229 209 188 157 172 117 106 148 136 145 148 152 162 174 181 198